Printer-friendly version

IAU Minor Planet Center

Minor Planet Center

MPEC 2004-C10 : 2004 BB103

The following Minor Planet Electronic Circular may be linked-to from your own Web pages, but must not otherwise be redistributed electronically.


Read MPEC 2004-C09 Read MPEC 2004-C11


M.P.E.C. 2004-C10                                Issued 2004 Feb. 2, 19:25 UT

     The Minor Planet Electronic Circulars contain information on unusual
         minor planets and routine data on comets.  They are published
   on behalf of Commission 20 of the International Astronomical Union by the
          Minor Planet Center, Smithsonian Astrophysical Observatory,
                          Cambridge, MA 02138, U.S.A.

         Supported in part by the Steven and Michele Kirsch Foundation
             Prepared using the Tamkin Foundation Computer Network

                              MPC@CFA.HARVARD.EDU
          URL http://cfa-www.harvard.edu/iau/mpc.html  ISSN 1523-6714

                                  2004 BB103

Observations:
     K04BA3B* C2004 01 31.08720 00 27 00.93 +27 02 04.6          18.7   EC010704
     K04BA3B  C2004 01 31.09977 00 27 06.33 +27 01 56.3          19.2   EC010704
     K04BA3B  C2004 01 31.11229 00 27 11.70 +27 01 49.5          19.2   EC010704
     K04BA3B  C2004 01 31.13712 00 27 22.36 +27 01 33.9          19.2   EC010704
     K04BA3B 5C2004 02 01.09757 00 34 12.63 +26 51 53.9          19.0 R EC010673
     K04BA3B 5C2004 02 01.10197 00 34 14.56 +26 51 51.0                 EC010673
     K04BA3B 5C2004 02 01.10775 00 34 17.08 +26 51 47.4                 EC010673
     K04BA3B 5C2004 02 01.11493 00 34 20.07 +26 51 42.2                 EC010673
     K04BA3B 5C2004 02 01.12141 00 34 22.89 +26 51 37.6                 EC010673
     K04BA3B  C2004 02 02.07263 00 41 00.79 +26 41 11.7          18.4 R EC010H06
     K04BA3B  C2004 02 02.07565 00 41 02.00 +26 41 10.1          18.5 R EC010H06
     K04BA3B  C2004 02 02.07912 00 41 03.44 +26 41 07.7          18.5 R EC010H06
     K04BA3B 5C2004 02 02.09954 00 41 11.95 +26 40 53.1          19.5 R EC010673
     K04BA3B 5C2004 02 02.10370 00 41 13.65 +26 40 50.3                 EC010673
     K04BA3B 5C2004 02 02.10787 00 41 15.38 +26 40 47.3                 EC010673
     K04BA3B 5C2004 02 02.11204 00 41 17.13 +26 40 44.1                 EC010673
     K04BA3B  C2004 02 02.11786 00 41 19.38 +26 40 39.6          19.5 R EC010448
     K04BA3B  C2004 02 02.12322 00 41 21.62 +26 40 35.8          19.8 R EC010448
     K04BA3B  C2004 02 02.13199 00 41 25.27 +26 40 30.2          19.4 R EC010448

Observer details:
448 Desert Moon Observatory.  Observer B. L. Stevens.  0.3-m
    Schmidt-Cassegrain + CCD.
673 Table Mountain Observatory, Wrightwood.  Observer J. Young.  0.6-m
    reflector + CCD.
704 Lincoln Laboratory ETS, New Mexico.  Observers M. Blythe, F. Shelly,
    M. Bezpalko, R. Huber, L. Manguso, D. Torres, R. Kracke, M. McCleary,
    H. Stange, A. Milner.  Measurers J. Stuart, R. Sayer, J. Evans, J. Kommers.
    1.0-m f/2.15 reflector + CCD.
H06 New Mexico Skies Observatory.  Observer R. Hutsebaut.

Orbital elements:
2004 BB103
Epoch 2004 Jan. 16.0 TT = JDT 2453020.5                 MPC
M  10.28477              (2000.0)            P               Q
n   0.26393575     Peri.   77.41543     +0.54230151     +0.11978930
a   2.4069694      Node   270.07136     -0.52212671     +0.82350448
e   0.6859506      Incl.   56.26358     +0.65824978     +0.55451862
P   3.73           H   17.1           G   0.15
From 19 observations 2004 Jan. 31-Feb. 2.

Ephemeris:
2004 BB103               a,e,i = 2.41, 0.69, 56                  q = 0.7559
Date    TT    R. A. (2000) Decl.     Delta      r     Elong.  Phase     V
2004 01 26    23 48.65   +27 35.8    0.963    1.072    66.8    57.6    19.2
2004 01 27    23 56.45   +27 31.8    0.970    1.082    67.2    57.0    19.3
2004 01 28    00 04.13   +27 26.5    0.978    1.092    67.6    56.5    19.3
2004 01 29    00 11.69   +27 19.8    0.987    1.102    68.0    55.9    19.3
2004 01 30    00 19.11   +27 11.9    0.996    1.113    68.3    55.4    19.3
2004 01 31    00 26.39   +27 02.9    1.006    1.123    68.7    54.8    19.4
2004 02 01    00 33.52   +26 53.0    1.016    1.133    68.9    54.2    19.4
2004 02 02    00 40.51   +26 42.1    1.027    1.143    69.2    53.7    19.4
2004 02 03    00 47.35   +26 30.3    1.038    1.154    69.5    53.1    19.4
2004 02 04    00 54.03   +26 17.9    1.050    1.164    69.7    52.6    19.5
2004 02 05    01 00.56   +26 04.7    1.063    1.174    69.9    52.0    19.5
2004 02 06    01 06.94   +25 51.1    1.075    1.185    70.0    51.4    19.5
2004 02 07    01 13.17   +25 36.9    1.089    1.195    70.2    50.9    19.6
2004 02 08    01 19.24   +25 22.3    1.102    1.206    70.3    50.4    19.6
2004 02 09    01 25.17   +25 07.3    1.116    1.216    70.4    49.8    19.6
2004 02 10    01 30.94   +24 52.1    1.131    1.227    70.4    49.3    19.7
2004 02 11    01 36.58   +24 36.7    1.145    1.237    70.5    48.8    19.7
2004 02 12    01 42.07   +24 21.0    1.161    1.247    70.5    48.2    19.7
2004 02 13    01 47.43   +24 05.3    1.176    1.258    70.5    47.7    19.7
2004 02 14    01 52.65   +23 49.5    1.192    1.268    70.5    47.2    19.8
2004 02 15    01 57.74   +23 33.6    1.208    1.279    70.4    46.7    19.8
2004 02 16    02 02.70   +23 17.8    1.224    1.289    70.4    46.2    19.8
2004 02 17    02 07.54   +23 01.9    1.241    1.300    70.3    45.7    19.9
2004 02 18    02 12.27   +22 46.2    1.258    1.310    70.2    45.2    19.9
2004 02 19    02 16.88   +22 30.5    1.275    1.321    70.1    44.7    19.9
2004 02 20    02 21.38   +22 15.0    1.293    1.331    69.9    44.2    20.0
2004 02 21    02 25.77   +21 59.6    1.310    1.341    69.8    43.8    20.0
2004 02 22    02 30.06   +21 44.3    1.328    1.352    69.6    43.3    20.0
2004 02 23    02 34.25   +21 29.2    1.346    1.362    69.4    42.8    20.1
2004 02 24    02 38.34   +21 14.3    1.365    1.373    69.2    42.4    20.1
2004 02 25    02 42.34   +20 59.6    1.383    1.383    69.0    41.9    20.1

Timothy B. Spahr             (C) Copyright 2004 MPC           M.P.E.C. 2004-C10

Read MPEC 2004-C09 Read MPEC 2004-C11


Our Web policy. Index to the CBAT/MPC/ICQ pages.


Valid HTML 4.01!